Quick links : Home Page : Contact Us : Index : Site Map : Search Site : Ephemerides


(62818) 2000 US45

Orbital Elements

The following orbital elements are taken from MPO101942
 (62818) 2000 US45
Epoch 2007 Oct. 27.0 TT = JDT 2454400.5                 MPC
M 225.68561              (2000.0)            P               Q
n   0.26262331     Peri.   72.36741     -0.82528830     -0.56138748
a   2.4149818      Node    73.43978     +0.49090060     -0.76674885
e   0.1148384      Incl.    3.65969     +0.27913406     -0.31135237
P   3.75           H   16.3           G   0.15           U   2
From 63 observations at 5 oppositions, 1994-2006, mean residual 0".65.
An explanation of the orbital elements is available.

These orbital elements are also available in forms suitable for loading into a number of popular planetarium-type software programs.


Ephemeris

The following ephemeris is at intervals of five days. A daily ephemeris covering the same time interval is also available.

Personalized ephemerides for this (and other) objects may be generated using the Minor Planet & Comet Ephemeris Service.

Date    TT    R. A. (2000) Decl.     Delta      r     Elong.  Phase     V
2008 08 22    06 37.39   +23 25.7    2.786    2.282    50.6    20.0    21.3
 
2008 10 01    07 51.55   +22 01.0    2.327    2.237    72.4    25.2    21.0
2008 10 06    07 59.92   +21 45.3    2.265    2.232    75.3    25.7    21.0
2008 10 11    08 08.01   +21 29.2    2.202    2.227    78.4    26.0    20.9
2008 10 16    08 15.81   +21 13.1    2.139    2.222    81.5    26.3    20.9
2008 10 21    08 23.29   +20 57.0    2.075    2.217    84.7    26.6    20.8
2008 10 26    08 30.41   +20 41.5    2.011    2.212    88.0    26.7    20.7
2008 10 31    08 37.15   +20 26.9    1.948    2.208    91.4    26.7    20.7
2008 11 05    08 43.46   +20 13.4    1.884    2.203    94.9    26.6    20.6
2008 11 10    08 49.30   +20 01.5    1.821    2.199    98.6    26.4    20.5
2008 11 15    08 54.65   +19 51.5    1.759    2.194   102.3    26.1    20.4
2008 11 20    08 59.45   +19 43.9    1.698    2.190   106.2    25.7    20.3
2008 11 25    09 03.65   +19 38.9    1.638    2.186   110.3    25.1    20.2
2008 11 30    09 07.20   +19 37.1    1.580    2.182   114.6    24.3    20.1
2008 12 05    09 10.05   +19 38.7    1.523    2.179   119.0    23.3    20.0
2008 12 10    09 12.15   +19 44.0    1.470    2.175   123.6    22.2    19.9
2008 12 15    09 13.46   +19 53.2    1.419    2.172   128.4    20.8    19.8
2008 12 20    09 13.93   +20 06.5    1.371    2.168   133.4    19.2    19.6
2008 12 25    09 13.53   +20 23.7    1.327    2.165   138.6    17.5    19.5
2008 12 30    09 12.25   +20 44.8    1.288    2.162   144.1    15.5    19.4
2009 01 04    09 10.10   +21 09.2    1.253    2.159   149.7    13.3    19.2
2009 01 09    09 07.14   +21 36.2    1.223    2.157   155.4    10.9    19.1
2009 01 14    09 03.44   +22 05.1    1.200    2.154   161.3     8.4    18.9
2009 01 19    08 59.12   +22 34.8    1.182    2.152   167.0     5.9    18.8
2009 01 24    08 54.32   +23 04.2    1.170    2.150   172.2     3.5    18.6
2009 01 29    08 49.24   +23 32.2    1.166    2.148   174.4     2.6    18.6
2009 02 03    08 44.10   +23 57.6    1.167    2.146   170.9     4.1    18.7
2009 02 08    08 39.11   +24 19.7    1.175    2.145   165.5     6.6    18.8
2009 02 13    08 34.48   +24 37.7    1.190    2.143   159.7     9.2    18.9
2009 02 18    08 30.39   +24 51.4    1.210    2.142   153.9    11.7    19.1
2009 02 23    08 26.98   +25 00.6    1.236    2.141   148.2    14.1    19.2
2009 02 28    08 24.38   +25 05.3    1.266    2.140   142.7    16.3    19.3
2009 03 05    08 22.67   +25 05.7    1.302    2.139   137.3    18.3    19.5
2009 03 10    08 21.87   +25 02.2    1.341    2.139   132.2    20.1    19.6
2009 03 15    08 21.98   +24 54.9    1.384    2.138   127.3    21.7    19.7
2009 03 20    08 22.98   +24 44.3    1.430    2.138   122.7    23.1    19.8
2009 03 25    08 24.83   +24 30.4    1.478    2.138   118.2    24.3    19.9
2009 03 30    08 27.48   +24 13.6    1.529    2.139   113.9    25.3    20.0
2009 04 04    08 30.88   +23 54.0    1.582    2.139   109.8    26.1    20.1
2009 04 09    08 34.97   +23 31.8    1.636    2.140   105.9    26.7    20.2
2009 04 14    08 39.66   +23 07.0    1.691    2.140   102.2    27.3    20.3
2009 04 19    08 44.90   +22 39.8    1.747    2.141    98.6    27.6    20.4
2009 04 24    08 50.64   +22 10.2    1.804    2.143    95.2    27.9    20.5
2009 04 29    08 56.83   +21 38.3    1.861    2.144    91.8    28.0    20.5
2009 05 04    09 03.41   +21 04.1    1.918    2.146    88.6    28.0    20.6
2009 05 09    09 10.32   +20 27.7    1.976    2.147    85.5    27.9    20.7
2009 05 14    09 17.54   +19 49.1    2.033    2.149    82.5    27.8    20.7
2009 05 19    09 25.02   +19 08.5    2.090    2.151    79.6    27.6    20.8
2009 05 24    09 32.72   +18 25.8    2.147    2.153    76.7    27.2    20.8
2009 05 29    09 40.63   +17 41.1    2.203    2.156    74.0    26.9    20.9
2009 06 03    09 48.70   +16 54.6    2.259    2.158    71.3    26.4    20.9
2009 06 08    09 56.92   +16 06.2    2.314    2.161    68.6    25.9    21.0
2009 06 13    10 05.27   +15 16.1    2.368    2.164    66.0    25.4    21.0
2009 06 18    10 13.72   +14 24.4    2.421    2.167    63.5    24.8    21.0

Back to Observable Critical-List Minor Planets

MPC

Valid HTML 4.01!